Find Starlink 11668

NORAD ID: 63557 Int'l Des: 2025-075 Owner: SPXS Country: US Constellation: starlink operational
LEOCIRCULAR

Current View

Loading 3D Globe...

About Starlink 11668

Starlink 11668 (NORAD 63557) is a starlink constellation satellite (v2 mini d2c) launched Apr 13, 2025 by SPXS of US. It operates in LEO, CIRCULAR orbit with a mass of 960.00 kg.

About Starlink 11668

Description loading...

Upcoming Passes

Passes for default location (London). Set your location on the main map for personalized predictions.

Altitude History

Loading altitude history...

Two-Line Element Set

1 63557U 25075K 26168.25163774 .00176933 00000-0 13522-2 0 9997
2 63557 43.0009 273.9859 0002495 271.7807 88.2775 15.70857438 68907
Epoch: Jun 17, 2026 • Age: 27 hours

Current Status

Altitude 367.0 km
Velocity 7.69 km/s
Sub-Earth Point -43.09°S, 129.99°E
Launch Date Apr 13, 2025
Age 1.1 years
Type internet

Technical Details

Classification Payload
Mass 960.00 kg
Dry Mass 910.00 kg
Total Mass 960.00 kg
Length 0.30 m
Diameter 4.10 m
Span 29.00 m
Shape Box + pan
Manufacturer SPXS
Bus Type Starlink V2MD
Phase Status In Orbit
Owner/State SPXS/US

Most Searched